Estherville, IA

7:30 AM CDT on March 25, 2017 (GMT -0500)
Estherville Municipal

Weather History for KEST - May, 2014

Change the Weather History Date:

Saturday, May 24, 2014

  Actual Average Record
Temperature  
Mean Temperature 67 °F 61 °F  
Max Temperature 81 °F 73 °F 87 °F (1989)
Min Temperature 53 °F 50 °F 35 °F (1949)
Degree Days  
Heating Degree Days 0 5  
Month to date heating degree days 260 207  
Since 1 July heating degree days 8543 7668  
Cooling Degree Days 2 2  
Month to date cooling degree days 9 19  
Year to date cooling degree days 9 21  
Growing Degree Days 18 (Base 50)    
Moisture  
Dew Point 43 °F    
Average Humidity 46    
Maximum Humidity 71    
Minimum Humidity 21    
Precipitation  
Precipitation 0.00 in 0.11 in 1.18 in (2012)
Month to date precipitation 1.34 2.94  
Sea Level Pressure  
Sea Level Pressure 30.09 in    
Wind  
Wind Speed 13 mph (SSE)    
Max Wind Speed 22 mph    
Max Gust Speed 28 mph    
Visibility 10 miles    
Events      
T = Trace of Precipitation, MM = Missing Value Source: NWS Daily Summary

Daily Weather History Graph

Daily Weather History Graph

Search for Another Location

Airport or City:

Trip Planner

Search our weather history database for the weather conditions in past years. The results will help you decide how hot, cold, wet, or windy it might be!

Date:

Astronomy

May. 24, 2014 Rise Set
Actual Time 5:46 AM CDT 8:45 PM CDT
Civil Twilight 5:12 AM CDT 9:20 PM CDT
Nautical Twilight 4:29 AM CDT 10:03 PM CDT
Astronomical Twilight 3:37 AM CDT 10:55 PM CDT
Moon 3:23 AM CDT (5/24) 4:37 PM CDT (5/24)
Length of Visible Light 16h 07m
Length of Day
14h 59m
Waning Crescent, 18% of the Moon is Illuminated
May 24
Waning Crescent
May 28
New
Jun 5
First Quarter
Jun 12
Full
Jun 19
Last Quarter

Hourly Weather History & Observations

Time (CDT) Temp. Dew Point Humidity Pressure Visibility Wind Dir Wind Speed Gust Speed Precip Events Conditions
12:52 AM 61.0 °F 39.0 °F 44% 30.13 in 10.0 mi SE 11.5 mph - N/A   Clear
1:52 AM 57.0 °F 39.0 °F 51% 30.12 in 10.0 mi South 8.1 mph - N/A   Clear
2:52 AM 57.0 °F 42.1 °F 57% 30.12 in 10.0 mi SSE 10.4 mph - N/A   Clear
3:52 AM 55.0 °F 41.0 °F 59% 30.13 in 10.0 mi SSE 8.1 mph - N/A   Clear
4:52 AM 54.0 °F 43.0 °F 66% 30.13 in 10.0 mi SSE 9.2 mph - N/A   Clear
5:52 AM 54.0 °F 44.1 °F 69% 30.14 in 10.0 mi SSE 8.1 mph - N/A   Clear
6:52 AM 57.0 °F 46.0 °F 67% 30.14 in 10.0 mi SSE 6.9 mph - N/A   Clear
7:52 AM 61.0 °F 45.0 °F 56% 30.14 in 10.0 mi SSE 13.8 mph - N/A   Clear
8:52 AM 64.9 °F 46.9 °F 52% 30.14 in 10.0 mi SSE 13.8 mph - N/A   Clear
9:52 AM 68.0 °F 46.9 °F 47% 30.14 in 10.0 mi South 17.3 mph - N/A   Clear
10:52 AM 72.0 °F 46.9 °F 41% 30.12 in 10.0 mi SSE 16.1 mph - N/A   Clear
11:52 AM 75.9 °F 46.9 °F 36% 30.12 in 10.0 mi SSE 17.3 mph - N/A   Clear
12:52 PM 75.9 °F 45.0 °F 33% 30.10 in 10.0 mi SSE 15.0 mph 25.3 mph N/A   Clear
1:52 PM 78.1 °F 45.0 °F 31% 30.09 in 10.0 mi South 18.4 mph 21.9 mph N/A   Clear
2:52 PM 78.1 °F 44.1 °F 30% 30.07 in 10.0 mi South 13.8 mph 24.2 mph N/A   Clear
3:52 PM 81.0 °F 44.1 °F 27% 30.05 in 10.0 mi SSE 17.3 mph 26.5 mph N/A   Clear
4:52 PM 80.1 °F 44.1 °F 28% 30.04 in 10.0 mi South 15.0 mph - N/A   Clear
5:52 PM 79.0 °F 41.0 °F 26% 30.03 in 10.0 mi SSE 17.3 mph 21.9 mph N/A   Clear
6:52 PM 78.1 °F 39.0 °F 25% 30.01 in 10.0 mi South 13.8 mph 20.7 mph N/A   Clear
7:52 PM 75.0 °F 34.0 °F 22% 30.01 in 10.0 mi SSE 12.7 mph - N/A   Clear
8:52 PM 64.9 °F 37.0 °F 36% 30.01 in 10.0 mi SSE 9.2 mph - N/A   Clear
9:52 PM 62.1 °F 41.0 °F 46% 30.02 in 10.0 mi SE 10.4 mph - N/A   Clear
10:52 PM 64.9 °F 43.0 °F 45% 30.02 in 10.0 mi SSE 11.5 mph - N/A   Clear
11:52 PM 59.0 °F 42.1 °F 53% 30.04 in 10.0 mi South 9.2 mph - N/A   Clear